DW9005 Weather Reports


time (UTC)temp
F
wind
direction
speed
knots
gust
knots
rain 1hr
in
rain 24hr
in
rain mn
in
humidity
%
barometer
mb
20260504050018 49 244 0.0 0.0 0.00 0.00 0.00 91 1019.0
20260504044520 49 244 0.0 0.0 0.00 0.00 0.00 90 1018.9
20260504043015 49 244 0.0 0.0 0.00 0.00 0.00 90 1019.1
20260504041533 50 244 0.0 0.0 0.00 0.00 0.00 89 1019.1
20260504040019 50 244 0.0 0.0 0.00 0.00 0.00 88 1019.2
20260504034510 50 244 0.0 0.0 0.00 0.00 0.00 88 1019.5
20260504033009 51 244 0.0 0.0 0.00 0.00 0.00 87 1019.4
20260504031552 51 244 0.0 0.0 0.00 0.00 0.00 85 1019.5
20260504030050 52 244 0.0 0.0 0.00 0.00 0.00 84 1019.3
20260504024534 53 244 0.0 0.0 0.00 0.00 0.00 82 1019.1
20260504023033 53 244 0.0 0.0 0.00 0.00 0.00 81 1019.0
20260504021515 54 244 0.0 0.0 0.00 0.00 0.00 78 1018.9
20260504020023 55 244 0.0 0.0 0.00 0.00 0.00 76 1018.8
20260504014601 56 244 0.0 0.0 0.00 0.00 0.00 74 1018.8
20260504013118 56 244 0.0 0.0 0.00 0.00 0.00 71 1018.5
20260504011539 58 244 0.0 0.0 0.00 0.00 0.00 69 1018.6
20260504010041 59 244 0.0 0.0 0.00 0.00 0.00 66 1018.4
20260504004521 61 244 0.0 0.0 0.00 0.00 0.00 63 1018.2
20260504003020 64 244 0.0 0.0 0.00 0.00 0.00 56 1018.1
20260504001520 66 246 0.0 0.0 0.00 0.00 0.00 52 1018.1
20260504000008 67 242 0.0 0.0 0.00 0.00 0.00 46 1018.1
20260503234507 68 309 0.0 0.0 0.00 0.00 0.00 45 1018.1
20260503233011 69 327 0.0 0.0 0.00 0.00 0.00 41 1018.0
20260503231505 69 309 0.0 0.0 0.00 0.00 0.00 40 1018.1
20260503230013 70 303 0.0 0.0 0.00 0.00 0.00 39 1018.3
20260503224503 70 269 0.0 0.0 0.00 0.00 0.00 38 1018.3
20260503223003 70 270 0.0 0.0 0.00 0.00 0.00 39 1018.3
20260503221557 71 275 0.0 0.0 0.00 0.00 0.00 39 1018.4
20260503220043 70 288 0.0 0.0 0.00 0.00 0.00 40 1018.5
20260503214536 70 294 0.0 0.0 0.00 0.00 0.00 38 1018.7
20260503213024 70 294 0.0 0.0 0.00 0.00 0.00 38 1018.7
20260503211505 70 313 0.0 0.0 0.00 0.00 0.00 38 1018.9
20260503210006 69 347 0.0 0.0 0.00 0.00 0.00 40 1019.0
20260503204606 69 288 0.0 0.0 0.00 0.00 0.00 40 1019.2
20260503203047 69 307 0.0 0.0 0.00 0.00 0.00 41 1019.4
20260503201535 68 277 0.0 0.0 0.00 0.00 0.00 45 1019.6
20260503200034 69 35 0.0 0.0 0.00 0.00 0.00 43 1019.9
20260503194536 69 315 0.0 0.0 0.00 0.00 0.00 42 1020.2
20260503193042 68 272 0.0 0.0 0.00 0.00 0.00 41 1020.5
20260503191558 67 311 0.0 0.0 0.00 0.00 0.00 44 1020.8
20260503190032 67 300 0.0 0.0 0.00 0.00 0.00 43 1021.0
20260503184526 68 270 0.0 0.0 0.00 0.00 0.00 44 1021.3
20260503183026 67 179 0.0 0.0 0.00 0.00 0.00 41 1021.4
20260503181507 67 293 0.0 0.0 0.00 0.00 0.00 45 1021.6
20260503180006 66 257 0.0 0.0 0.00 0.00 0.00 45 1021.7
20260503174605 66 188 0.0 0.0 0.00 0.00 0.00 44 1021.8
20260503173046 65 339 0.0 0.0 0.00 0.00 0.00 44 1021.9
20260503171543 65 293 0.0 0.0 0.00 0.00 0.00 48 1022.1
20260503081527 44 355 0.0 0.0 0.00 0.00 0.00 93 1020.1
20260503080108 44 355 0.0 0.0 0.00 0.00 0.00 93 1020.0
20260503071538 45 355 0.0 0.0 0.00 0.00 0.00 93 1019.6
20260503054557 46 355 0.0 0.0 0.00 0.00 0.00 92 1019.5
20260503053024 46 355 0.0 0.0 0.00 0.00 0.00 92 1019.4